SV7GBF-2 Weather Reports


time (UTC)temp
F
wind
direction
speed
knots
gust
knots
rain 1hr
in
rain 24hr
in
rain mn
in
humidity
%
barometer
mb
20260906064410 78 0 0.0 0.0 0.00 0.00 0.00 50 1017.0
20260906062408 77 0 0.0 0.0 0.00 0.00 0.00 48 1016.0
20260906061409 77 0 0.0 0.0 0.00 0.00 0.00 42 1016.0
20260906055407 74 0 0.0 0.0 0.00 0.00 0.00 32 1016.0
20260906054409 74 0 0.0 0.0 0.00 0.00 0.00 32 1016.0
20260906053407 73 0 0.0 0.0 0.00 0.00 0.00 32 1016.0
20260906045408 72 0 0.0 0.0 0.00 0.00 0.00 31 1016.0
20260906043405 71 0 0.0 0.0 0.00 0.00 0.00 31 1016.0
20260906042405 71 0 0.0 0.0 0.00 0.00 0.00 31 1016.0
20260906041406 71 0 0.0 0.0 0.00 0.00 0.00 30 1016.0
20260906040407 71 0 0.0 0.0 0.00 0.00 0.00 30 1016.0
20260906035406 71 0 0.0 0.0 0.00 0.00 0.00 29 1015.0
20260906034406 71 0 0.0 0.0 0.00 0.00 0.00 29 1015.0
20260906033406 71 0 0.0 0.0 0.00 0.00 0.00 29 1015.0
20260906032407 72 0 0.0 0.0 0.00 0.00 0.00 32 1015.0
20260906031406 72 0 0.0 0.0 0.00 0.00 0.00 32 1015.0
20260906030406 72 0 0.0 0.0 0.00 0.00 0.00 32 1015.0
20260906025406 73 0 0.0 0.0 0.00 0.00 0.00 32 1015.0
20260906024406 73 0 0.0 0.0 0.00 0.00 0.00 31 1015.0
20260906023406 73 0 0.0 0.0 0.00 0.00 0.00 31 1015.0
20260906022406 73 0 0.0 0.0 0.00 0.00 0.00 29 1015.0
20260906020408 73 0 0.0 0.0 0.00 0.00 0.00 28 1015.0
20260906015406 73 0 0.0 0.0 0.00 0.00 0.00 31 1015.0
20260906014406 72 0 0.0 0.0 0.00 0.00 0.00 26 1015.0
20260906013406 73 0 0.0 0.0 0.00 0.00 0.00 25 1015.0
20260906012406 74 0 0.0 0.0 0.00 0.00 0.00 25 1015.0
20260906011406 74 0 0.0 0.0 0.00 0.00 0.00 25 1015.0
20260906010406 73 0 0.0 0.0 0.00 0.00 0.00 22 1015.0
20260906005407 73 0 0.0 0.0 0.00 0.00 0.00 22 1015.0
20260906004406 73 0 0.0 0.0 0.00 0.00 0.00 21 1015.0
20260906003406 73 0 0.0 0.0 0.00 0.00 0.00 21 1015.0
20260906002407 74 0 0.0 0.0 0.00 0.00 0.00 21 1015.0
20260906001407 74 0 0.0 0.0 0.00 0.00 0.00 21 1015.0
20260906000407 74 0 0.0 0.0 0.00 0.00 0.00 21 1015.0
20260905235407 74 0 0.0 0.0 0.00 0.00 0.00 18 1015.0
20260905234406 74 0 0.0 0.0 0.00 0.00 0.00 18 1015.0
20260905233406 74 0 0.0 0.0 0.00 0.00 0.00 16 1016.0
20260905232406 75 0 0.0 0.0 0.00 0.00 0.00 13 1016.0
20260905230408 75 0 0.0 0.0 0.00 0.00 0.00 13 1015.0
20260905223405 75 0 0.0 0.0 0.00 0.00 0.00 10 1015.0
20260905222406 76 0 0.0 0.0 0.00 0.00 0.00 10 1016.0
20260905221406 75 0 0.0 0.0 0.00 0.00 0.00 10 1016.0
20260905220406 76 0 0.0 0.0 0.00 0.00 0.00 10 1016.0
20260905215406 76 0 0.0 0.0 0.00 0.00 0.00 10 1016.0
20260905214406 76 0 0.0 0.0 0.00 0.00 0.00 10 1016.0
20260905213406 76 0 0.0 0.0 0.00 0.00 0.00 10 1016.0
20260905212406 76 0 0.0 0.0 0.00 0.00 0.00 10 1016.0
20260905211406 76 0 0.0 0.0 0.00 0.00 0.00 10 1016.0
20260905210406 77 0 0.0 0.0 0.00 0.00 0.00 10 1016.0
20260905204406 77 0 0.0 0.0 0.00 0.00 0.00 10 1016.0
20260905203406 78 0 0.0 0.0 0.00 0.00 0.00 10 1016.0
20260905201407 78 0 0.0 0.0 0.00 0.00 0.00 10 1016.0
20260905200406 78 0 0.0 0.0 0.00 0.00 0.00 10 1016.0
20260905194407 78 0 0.0 0.0 0.00 0.00 0.00 10 1016.0
20260905193405 79 0 0.0 0.0 0.00 0.00 0.00 10 1016.0
20260905192405 79 0 0.0 0.0 0.00 0.00 0.00 10 1016.0
20260905191406 80 0 0.0 0.0 0.00 0.00 0.00 9 1016.0
20260905190406 80 0 0.0 0.0 0.00 0.00 0.00 9 1016.0
20260905184407 81 0 0.0 0.0 0.00 0.00 0.00 9 1016.0
20260905183407 81 0 0.0 0.0 0.00 0.00 0.00 9 1016.0
20260905182406 81 0 0.0 0.0 0.00 0.00 0.00 9 1016.0
20260905181407 81 0 0.0 0.0 0.00 0.00 0.00 9 1016.0
20260905180406 81 0 0.0 0.0 0.00 0.00 0.00 9 1016.0
20260905175406 82 0 0.0 0.0 0.00 0.00 0.00 9 1016.0
20260905172406 85 0 0.0 0.0 0.00 0.00 0.00 8 1016.0
20260905171406 86 0 0.0 0.0 0.00 0.00 0.00 8 1016.0
20260905170406 86 0 0.0 0.0 0.00 0.00 0.00 8 1016.0
20260905165405 87 0 0.0 0.0 0.00 0.00 0.00 8 1016.0
20260905164406 87 0 0.0 0.0 0.00 0.00 0.00 8 1016.0
20260905163406 87 0 0.0 0.0 0.00 0.00 0.00 8 1016.0
20260905162406 88 0 0.0 0.0 0.00 0.00 0.00 8 1016.0
20260905161406 89 0 0.0 0.0 0.00 0.00 0.00 7 1016.0
20260905160406 90 0 0.0 0.0 0.00 0.00 0.00 7 1016.0
20260905155406 92 0 0.0 0.0 0.00 0.00 0.00 7 1016.0
20260905154406 93 0 0.0 0.0 0.00 0.00 0.00 6 1016.0
20260905153406 94 0 0.0 0.0 0.00 0.00 0.00 6 1016.0
20260905152405 95 0 0.0 0.0 0.00 0.00 0.00 6 1016.0
20260905151406 95 0 0.0 0.0 0.00 0.00 0.00 6 1015.0
20260905150405 95 0 0.0 0.0 0.00 0.00 0.00 6 1015.0
20260905145406 96 0 0.0 0.0 0.00 0.00 0.00 6 1016.0
20260905141407 96 0 0.0 0.0 0.00 0.00 0.00 6 1016.0
20260905140406 95 0 0.0 0.0 0.00 0.00 0.00 6 1016.0
20260905134407 95 0 0.0 0.0 0.00 0.00 0.00 6 1016.0
20260905133405 94 0 0.0 0.0 0.00 0.00 0.00 6 1016.0
20260905132406 94 0 0.0 0.0 0.00 0.00 0.00 6 1016.0
20260905131407 94 0 0.0 0.0 0.00 0.00 0.00 6 1016.0
20260905130406 94 0 0.0 0.0 0.00 0.00 0.00 6 1016.0
20260905125406 94 0 0.0 0.0 0.00 0.00 0.00 6 1016.0
20260905124406 93 0 0.0 0.0 0.00 0.00 0.00 6 1016.0
20260905123407 92 0 0.0 0.0 0.00 0.00 0.00 7 1016.0
20260905120405 91 0 0.0 0.0 0.00 0.00 0.00 7 1017.0
20260905115405 91 0 0.0 0.0 0.00 0.00 0.00 7 1017.0
20260905114406 91 0 0.0 0.0 0.00 0.00 0.00 7 1017.0
20260905113406 91 0 0.0 0.0 0.00 0.00 0.00 7 1017.0
20260905112407 90 0 0.0 0.0 0.00 0.00 0.00 7 1017.0
20260905111407 89 0 0.0 0.0 0.00 0.00 0.00 7 1017.0
20260905105407 88 0 0.0 0.0 0.00 0.00 0.00 8 1017.0
20260905103405 88 0 0.0 0.0 0.00 0.00 0.00 8 1017.0
20260905101406 87 0 0.0 0.0 0.00 0.00 0.00 8 1017.0
20260905100405 86 0 0.0 0.0 0.00 0.00 0.00 8 1017.0
20260905095405 86 0 0.0 0.0 0.00 0.00 0.00 8 1017.0
20260905094406 85 0 0.0 0.0 0.00 0.00 0.00 8 1017.0
20260905092405 84 0 0.0 0.0 0.00 0.00 0.00 8 1018.0
20260905090405 84 0 0.0 0.0 0.00 0.00 0.00 8 1018.0
20260905085407 83 0 0.0 0.0 0.00 0.00 0.00 9 1018.0
20260905083405 82 0 0.0 0.0 0.00 0.00 0.00 9 1018.0
20260905082405 82 0 0.0 0.0 0.00 0.00 0.00 11 1018.0
20260905081406 81 0 0.0 0.0 0.00 0.00 0.00 12 1018.0
20260905080406 81 0 0.0 0.0 0.00 0.00 0.00 12 1018.0
20260905075407 81 0 0.0 0.0 0.00 0.00 0.00 9 1018.0
20260905071406 79 0 0.0 0.0 0.00 0.00 0.00 15 1018.0
20260905070405 78 0 0.0 0.0 0.00 0.00 0.00 30 1018.0